Dewpoint
67 69 71 73 75 74 75 76 76 77 77 76 76 75 76 77 76 77 76 75 75 76 76 75 74 74 70 72 73 72 71 71 69 66 69 74 75 73 71 71 72 73 73
67 68 68 68 70 73 75 75 76 76 76 76 76 76 76 76 77 76 76 73 74 75 75 75 73 72 74 75 71 74 71 71 67 71 70 67 73 73 73 74 71 70 73
65 66 66 66 67 69 71 75 74 76 76 76 75 76 75 76 76 76 76 75 74 74 74 74 75 73 75 73 73 71 71 72 71 68 67 66 67 69 72 73 72 75 71
64 66 67 67 68 68 70 72 73 75 75 76 76 75 75 75 75 75 75 75 75 73 74 74 75 74 75 76 74 75 74 70 71 71 68 65 66 71 69 68 70 70 68
66 66 67 69 69 70 71 71 73 75 75 74 75 74 75 75 73 75 75 75 75 74 75 74 75 74 71 73 72 73 75 71 69 69 66 64 68 67 68 67 66 66 70
66 66 68 69 69 68 69 71 75 73 74 75 75 75 75 75 68 66 72 75 74 73 74 74 75 72 71 66 67 67 72 73 73 67 65 66 72 70 68 66 64 68 62
66 67 67 68 68 68 67 68 70 72 71 73 74 73 73 73 63 63 64 75 75 75 75 76 73 73 71 70 67 66 67 66 68 73 72 72 72 72 72 72 71 68 66
66 65 66 67 67 68 67 67 68 68 68 67 67 68 68 69 63 61 63 73 75 74 74 75 75 75 73 71 71 70 71 71 71 70 73 73 73 75 74 72 73 72 70
62 62 62 65 66 66 66 68 68 69 69 66 67 68 68 69 61 60 62 69 70 73 74 74 74 74 67 62 72 72 71 69 65 65 65 63 63 63 67 68 68 67 64
62 63 64 63 65 65 66 67 69 69 69 71 71 70 66 70 59 57 62 70 67 68 72 74 66 71 63 60 71 72 71 71 71 70 69 67 65 69 64 71 67 64 64
64 64 64 64 64 64 67 66 67 68 69 70 69 70 69 66 64 54 55 67 69 71 71 74 74 59 58 56 59 70 68 69 69 70 71 70 69 69 69 70 71 69 68
64 62 62 63 63 62 67 67 68 68 66 67 67 65 64 66 54 54 53 54 61 68 70 70 69 57 55 55 59 57 57 60 69 68 69 70 73 70 69 70 73 74 74
64 63 62 63 63 64 64 66 67 66 64 63 63 63 62 64 64 54 52 54 57 65 69 64 56 52 53 56 55 56 57 66 67 66 66 67 68 67 69 70 71 73 73
63 63 62 62 61 66 63 57 64 67 67 61 61 61 60 60 61 63 64 64 59 63 61 61 59 59 57 59 59 59 64 66 67 67 66 66 67 67 66 67 65 66 67
61 58 59 56 60 59 60 57 57 56 53 57 59 59 57 56 54 49 51 61 61 58 60 63 63 63 63 64 65 65 66 67 66 65 67 67 66 66 66 66 66 65 64
60 53 53 53 56 52 56 56 49 47 46 44 44 50 55 48 47 46 47 47 48 49 60 62 63 62 61 60 60 61 61 61 63 64 65 64 63 64 63 65 66 67 66
63 57 53 52 50 52 52 51 54 53 46 44 44 44 44 46 46 46 45 46 47 50 58 59 60 59 59 60 59 61 61 63 65 63 62 63 64 65 66 63 62 62 64
56 53 50 52 49 49 50 49 48 52 53 56 47 49 44 44 44 45 46 48 55 54 55 55 57 58 58 59 59 59 60 60 61 62 63 64 63 63 63 63 63 63 63
52 51 52 51 52 51 52 47 45 48 51 56 56 51 48 44 45 44 45 56 52 52 54 56 57 57 57 58 58 59 60 59 60 61 61 62 62 62 62 62 62 55 57
50 54 52 52 51 49 48 49 48 48 50 50 52 54 56 55 56 58 56 54 53 52 54 55 56 57 57 58 58 58 58 58 59 58 59 59 60 59 58 59 59 59 59
46 50 53 48 46 45 46 46 53 49 55 53 59 55 50 54 56 56 53 52 52 52 52 53 53 55 56 57 56 55 54 54 56 55 54 55 56 55 57 56 55 56 56
48 44 48 44 50 46 46 46 45 48 53 53 56 53 50 53 53 54 55 54 52 53 53 54 51 51 50 53 55 53 52 52 53 53 53 52 54 53 53 53 54 54 55
47 45 45 46 47 47 44 44 45 46 45 44 45 52 52 49 48 48 50 53 55 56 54 53 52 49 50 53 53 53 51 55 52 52 52 51 51 51 54 53 54 52 53
45 46 45 45 44 44 45 44 45 43 43 42 43 45 44 47 46 49 51 53 56 52 51 51 51 49 53 53 53 51 50 51 49 46 52 50 49 50 52 53 51 52 54
44 46 44 45 44 45 44 44 45 44 45 44 42 43 45 46 46 46 52 51 51 51 54 56 55 55 53 52 53 51 43 35 43 40 43 46 49 50 50 54 55 53 55
43 43 42 44 44 44 44 43 43 43 44 44 44 45 44 44 44 44 45 49 53 56 57 54 52 55 56 54 52 42 35 35 41 38 44 42 44 46 46 49 55 53 52
Lifted_Index
-6 -7 -7 -8 -9 -9 -10 -10 -10 -10 -9 -9 -9 -9 -9 -9 -10 -9 -9 -9 -9 -9 -9 -8 -7 -6 -6 -6 -5 -5 -4 -4 -4 -3 -3 -3 -4 -4 -4 -4 -4 -4 -4
-6 -6 -6 -7 -8 -8 -9 -9 -9 -9 -9 -9 -9 -9 -9 -9 -9 -9 -9 -9 -9 -9 -8 -8 -7 -7 -7 -6 -6 -5 -5 -4 -4 -4 -3 -3 -3 -3 -4 -4 -4 -4 -4
-5 -5 -5 -6 -6 -7 -8 -9 -9 -9 -9 -9 -9 -9 -9 -9 -9 -9 -9 -9 -9 -9 -8 -8 -8 -7 -7 -7 -7 -6 -5 -5 -5 -4 -4 -3 -3 -3 -3 -3 -4 -4 -4
-5 -5 -5 -5 -6 -6 -7 -8 -8 -8 -8 -9 -9 -9 -9 -9 -9 -9 -9 -9 -9 -9 -8 -8 -8 -8 -8 -7 -7 -6 -5 -5 -5 -4 -4 -3 -3 -3 -3 -3 -3 -3 -3
-5 -5 -5 -5 -5 -5 -6 -7 -8 -8 -8 -9 -9 -9 -9 -8 -8 -8 -8 -9 -9 -9 -8 -8 -8 -8 -7 -7 -6 -5 -5 -5 -5 -4 -4 -3 -3 -3 -3 -2 -2 -2 -2
-5 -5 -5 -5 -5 -4 -4 -6 -7 -7 -8 -8 -8 -9 -8 -8 -8 -7 -8 -8 -8 -8 -8 -8 -8 -7 -7 -6 -5 -5 -5 -5 -4 -4 -4 -4 -4 -4 -3 -3 -2 -1 -1
-5 -5 -5 -5 -5 -4 -3 -4 -5 -6 -7 -7 -8 -8 -8 -8 -7 -7 -7 -7 -8 -8 -8 -8 -7 -7 -6 -5 -5 -4 -5 -5 -4 -4 -4 -4 -4 -4 -4 -4 -3 -2 -2
-4 -5 -5 -5 -4 -3 -3 -3 -4 -5 -6 -6 -7 -7 -7 -7 -7 -7 -7 -7 -7 -7 -7 -7 -7 -7 -6 -5 -5 -5 -4 -4 -4 -4 -4 -4 -4 -4 -4 -4 -3 -3 -2
-3 -3 -4 -4 -4 -3 -3 -3 -3 -4 -5 -6 -6 -6 -6 -6 -6 -5 -5 -6 -6 -6 -7 -7 -7 -6 -5 -5 -5 -5 -4 -4 -4 -3 -3 -3 -3 -4 -4 -4 -3 -2 -2
-2 -2 -2 -3 -3 -3 -3 -3 -3 -4 -4 -5 -5 -5 -4 -4 -4 -3 -3 -4 -5 -5 -6 -7 -6 -6 -5 -4 -4 -4 -4 -4 -3 -3 -3 -2 -3 -3 -3 -3 -2 -2 -2
-1 -1 -2 -2 -3 -3 -3 -3 -3 -3 -4 -4 -4 -4 -3 -3 -2 -2 -2 -2 -4 -5 -6 -6 -6 -5 -5 -4 -3 -3 -3 -3 -2 -2 -2 -2 -2 -2 -2 -2 -2 -2 -2
-1 -1 -1 -2 -2 -3 -3 -3 -4 -3 -3 -3 -3 -2 -2 -2 -1 -1 -1 -2 -3 -4 -4 -5 -4 -4 -3 -3 -2 -2 -2 -2 -1 -1 -1 -2 -2 -2 -2 -2 -2 -3 -3
-1 -1 -1 -2 -2 -3 -3 -3 -3 -3 -2 -2 -1 -1 -1 -1 -1 -1 -1 -1 -2 -3 -3 -3 -3 -2 -2 -2 -2 -1 -1 -1 -1 -0 -0 -0 -1 -1 -1 -1 -1 -2 -2
-0 -1 -1 -1 -2 -2 -2 -2 -2 -2 -2 -1 -1 -1 -1 -0 -0 -0 -1 -1 -1 -1 -1 -1 -1 -1 -0 -1 -0 -0 -0 0 0 -0 -0 0 0 0 0 0 0 0 -0
0 0 -0 -1 -1 -1 -1 -0 0 0 0 0 0 0 1 1 2 1 1 0 -1 -1 -0 -0 0 1 1 1 1 1 1 1 0 0 -0 0 1 1 1 1 1 1 1
0 1 1 0 -0 -0 0 1 1 2 2 2 2 2 3 4 4 4 3 2 1 1 1 1 1 1 1 1 1 1 1 1 1 1 1 1 1 1 1 1 1 0 -0
1 1 2 1 1 1 1 1 2 2 2 3 3 3 4 5 6 5 5 4 3 2 2 2 2 2 2 2 2 1 1 1 1 1 1 1 1 1 1 0 0 -0 -0
1 1 2 1 1 1 1 2 2 2 2 2 3 3 3 4 5 5 4 4 3 3 3 3 3 3 3 3 3 3 2 2 2 1 1 1 1 0 0 0 0 0 0
1 2 2 1 1 1 1 2 2 2 1 1 2 2 3 3 4 3 3 3 3 3 3 3 3 4 4 4 4 3 3 3 2 2 2 2 1 1 1 1 1 1 1
2 2 2 1 1 2 2 2 2 1 1 1 1 1 2 2 2 2 2 2 3 3 3 3 3 3 4 4 3 3 3 3 3 3 3 3 2 2 2 2 2 2 2
2 2 2 2 2 2 2 2 1 1 1 0 0 1 1 2 1 2 2 2 2 3 3 3 3 3 3 3 3 3 3 3 3 3 3 3 3 3 3 3 3 3 3
1 1 2 2 2 2 2 2 1 1 1 1 1 1 1 2 1 2 2 2 2 2 3 3 3 3 3 3 3 3 3 3 4 4 4 4 3 3 4 3 3 3 3
1 1 1 1 1 2 2 2 2 2 2 2 2 1 2 2 2 2 1 2 2 2 2 3 3 3 3 3 3 3 3 4 4 4 4 4 4 4 4 4 4 3 3
1 1 1 1 1 2 2 2 2 2 2 2 2 2 2 2 2 1 1 1 2 2 2 3 3 3 3 3 3 3 4 4 5 6 5 5 5 4 4 4 4 3 3
2 2 2 1 1 1 2 2 2 2 2 2 2 2 2 2 2 2 1 1 2 2 2 3 3 3 3 3 3 4 4 5 6 7 7 7 6 5 4 4 3 3 3
2 2 2 2 2 1 2 2 2 2 1 2 2 2 2 2 2 3 2 2 2 2 2 3 3 3 3 3 3 4 4 5 6 8 9 8 7 5 5 4 3 3 3